Terminal Aerodrome Forecast
Issued by NWS

Home | Current Version | Previous Version | Text Only | Print | Product List | Glossary On
Versions: 1 2 3 4 5 6 7 8 9 10 11 12 13 14 15 16 17 18 19 20 21 22 23 24 25 26 27
000
FTUS45 KBOU 231959 AAA
TAFAPA
TAF AMD
KAPA 231959Z 2320/2418 36009KT P6SM SCT015 OVC030
     FM232100 06010KT 5SM -SHRA BKN008 OVC014
     FM232300 06008KT 3SM -RA BR BKN004 OVC008
     FM240100 34006KT P6SM VCSH SCT006 BKN012
     FM240300 05010KT 5SM -RA BR BKN004 OVC008
     FM240900 30006KT P6SM SCT010 BKN016
     FM241600 01007KT P6SM VCSH SCT015 BKN030=

USA.gov is the U.S. government's official web portal to all federal, state and local government web resources and services.